Location: Newark
(48.0000°N, 67.0000°E)
Time: 04:34:08
(UTC+00:00)

A-11 Canister half - Pass Details

Date: 27 February 2020
Orbit: 1517 x 1683 km, 47.2° (Epoch: 04 April)

Event Time Altitude Azimuth Distance (km) Brightness Sun altitude
Rises 18:14:59 0° 286° (WNW) 4,795 12.1 -46.0°
Reaches altitude 10° 18:20:11 10° 264° (W) 3,768 11.2 -46.5°
Enters shadow 18:22:13 13° 251° (WSW) 3,537 10.9 -46.7°
